Regional Weather Roundup
Issued by NWS

Home | Current Version | Previous Version | Text Only | Print | Product List | Glossary Off
Versions: 1 2 3 4 5 6 7 8 9 10 11 12 13 14 15 16 17 18 19 20 21 22 23 24 25 26 27 28 29 30 31 32 33 34 35 36 37 38 39 40 41 42 43 44 45 46 47 48 49

000
ASUS45 KCYS 300810
RWRWY

WYOMING REGIONAL WEATHER ROUNDUP
NATIONAL WEATHER SERVICE CHEYENNE WY
200 AM MDT TUE SEP 30 2014

NOTE:  "FAIR" INDICATES FEW OR NO CLOUDS BELOW 12,000 FEET
WITH NO SIGNIFICANT WEATHER AND/OR OBSTRUCTIONS TO VISIBILITY.

WYZ001-300900-
YELLOWSTONE NATIONAL PARK

CITY           SKY/WX    TMP DP  RH WIND       PRES   REMARKS
LK YELLOWSTONE   N/A     38  35  89 VRB3      30.01F
W YELLOWSTONE  NOT AVBL

$$
WYZ002>013-054>058-071-098>099-300900-
NORTHERN WYOMING

CITY           SKY/WX    TMP DP  RH WIND       PRES   REMARKS
JACKSON        CLOUDY    43  43 100 SW5       29.99F
CODY           CLEAR     52  37  58 NW7       29.81S
GREYBULL       MOCLDY    49  47  93 CALM      29.77F
WORLAND        MOCLDY    49  45  86 SW3       29.78F
SHERIDAN       CLOUDY    53  50  89 CALM      29.76F
BUFFALO        CLOUDY    50  49  96 NW13      29.77F
GILLETTE       CLOUDY    52  49  89 S7        29.75F
HULETT         RAIN      50  50 100 E3        29.77
NEWCASTLE      RAIN      48  46  93 N24G32    29.69

$$
WYZ014>020-022>026-101>103-300900-
CENTRAL WYOMING

CITY           SKY/WX    TMP DP  RH WIND       PRES   REMARKS
BIG PINEY      PTCLDY    38  35  89 NW5       30.00F WCI  34
PINEDALE       PTSUNNY   36  36 100 SW6       30.01S WCI  31
DUBOIS         FAIR      41  34  75 NW14G25   29.93F
LANDER         PTCLDY    44  34  67 NE7       29.84F
RIVERTON       PTCLDY    50  36  58 W16       29.84F
CASPER         CLOUDY    52  38  58 W14       29.78F
DOUGLAS        CLOUDY    49  47  93 SW3       29.74F

$$
WYZ021-027>030-104>119-300900-
SOUTHERN WYOMING

CITY           SKY/WX    TMP DP  RH WIND       PRES   REMARKS
EVANSTON       CLOUDY    41  38  89 SW9       30.05F
KEMMERER       CLOUDY    39  37  93 SW3       30.04F
FORT BRIDGER   PTSUNNY   44  39  83 SW13      30.08S
ROCK SPRINGS   CLEAR     42  37  82 SW18      30.00F
DIXON          CLOUDY    44  40  85 SW7       30.04R
RAWLINS        CLOUDY    43  38  82 W20G30    29.94R
SARATOGA         N/A     43  37  81 W22G31    29.95F
LARAMIE        CLOUDY    44  36  73 W18       29.87F
CHEYENNE       CLOUDY    47  41  80 W14       29.80F
TORRINGTON     RAIN      49  47  93 W15G26    29.70S
PINE BLUFFS    RAIN      46  45  93 W7        29.78F

$$



USA.gov is the U.S. government's official web portal to all federal, state and local government web resources and services.